VE3GSI Weather Reports


Display with metric or nautical units.
time (UTC)temp
F
wind
direction
speed
MPH
gust
MPH
rain 1hr
in
rain 24hr
in
rain mn
in
humidity
%
barometer
mb
20260507060605 39 247 5.0 9.0 0.00 0.20 0.00 71 1009.6
20260507054606 39 260 5.0 8.0 0.00 0.20 0.00 71 1009.6
20260507053606 39 252 5.0 10.0 0.00 0.20 0.00 70 1009.6
20260507052605 39 254 4.0 9.0 0.00 0.20 0.00 72 1009.6
20260507051605 38 243 4.0 7.0 0.00 0.20 0.00 72 1009.6
20260507050606 39 249 3.0 6.0 0.00 0.20 0.00 72 1009.5
20260507045605 39 247 3.0 6.0 0.00 0.20 0.00 71 1009.5
20260507044606 39 268 3.0 7.0 0.00 0.20 0.00 71 1009.7
20260507041605 40 259 4.0 7.0 0.00 0.20 0.00 68 1009.6
20260507040605 41 270 3.0 9.0 0.00 0.20 0.00 68 1009.4
20260507034606 41 256 6.0 12.0 0.00 0.20 0.20 67 1009.3
20260507033605 41 263 3.0 8.0 0.00 0.20 0.20 67 1009.2
20260507032605 42 262 2.0 12.0 0.00 0.20 0.20 66 1009.3
20260507031605 42 267 5.0 9.0 0.00 0.20 0.20 66 1009.4
20260507030605 42 258 5.0 12.0 0.00 0.20 0.20 65 1009.3
20260507025605 43 260 5.0 10.0 0.00 0.20 0.20 64 1009.3
20260507024605 43 237 5.0 8.0 0.00 0.20 0.20 64 1009.4
20260507023605 44 254 5.0 12.0 0.00 0.20 0.20 63 1009.3
20260507021605 45 268 7.0 13.0 0.00 0.20 0.20 65 1009.2
20260507020605 46 257 6.0 12.0 0.00 0.20 0.20 76 1009.3
20260507015606 45 233 5.0 12.0 0.00 0.20 0.20 82 1009.3
20260507014605 46 235 4.0 8.0 0.00 0.20 0.20 83 1009.3
20260507013606 46 224 2.0 7.0 0.00 0.20 0.20 84 1009.2
20260507012605 47 232 4.0 6.0 0.00 0.20 0.20 83 1009.1
20260507011605 47 247 2.0 8.0 0.00 0.20 0.20 83 1009.0
20260507010605 47 219 5.0 8.0 0.00 0.20 0.20 83 1009.0
20260507005605 47 250 6.0 9.0 0.00 0.20 0.20 83 1008.9
20260507004605 47 270 4.0 8.0 0.00 0.20 0.20 84 1008.9
20260507003605 48 237 3.0 7.0 0.00 0.20 0.20 85 1008.8
20260507002605 48 257 4.0 7.0 0.00 0.20 0.20 85 1008.7
20260507001605 48 259 5.0 10.0 0.00 0.20 0.20 86 1008.6
20260506235605 47 218 4.0 7.0 0.00 0.20 0.20 87 1008.4
20260506234605 48 205 5.0 8.0 0.00 0.20 0.20 86 1008.4
20260506232605 48 203 5.0 10.0 0.00 0.20 0.20 85 1008.3
20260506230605 49 199 6.0 12.0 0.00 0.20 0.20 84 1008.0
20260506224605 49 218 4.0 9.0 0.00 0.20 0.20 83 1007.9
20260506223608 49 209 3.0 10.0 0.00 0.20 0.20 83 1007.9
20260506222605 49 211 4.0 9.0 0.00 0.20 0.20 82 1007.9
20260506221606 49 223 5.0 10.0 0.00 0.20 0.20 80 1007.9
20260506220605 50 236 5.0 12.0 0.00 0.20 0.20 79 1007.8
20260506215605 51 223 6.0 13.0 0.00 0.21 0.20 76 1007.8
20260506214605 51 228 4.0 10.0 0.00 0.24 0.20 75 1007.8
20260506213604 51 197 4.0 10.0 0.00 0.25 0.20 74 1007.7
20260506211605 52 203 6.0 12.0 0.00 0.25 0.20 71 1007.7
20260506210605 52 208 6.0 12.0 0.00 0.25 0.20 71 1007.6
20260506205605 53 214 6.0 9.0 0.00 0.25 0.20 71 1007.5
20260506204606 53 205 6.0 8.0 0.00 0.25 0.20 71 1007.4
20260506202605 53 198 6.0 10.0 0.00 0.25 0.20 70 1007.4
20260506201605 53 199 7.0 10.0 0.00 0.25 0.20 69 1007.5
20260506200605 53 190 5.0 9.0 0.00 0.25 0.20 70 1007.6
20260506195604 53 207 2.0 8.0 0.00 0.25 0.20 69 1007.6
20260506194605 53 211 6.0 9.0 0.00 0.25 0.20 69 1007.4
20260506193605 53 185 6.0 9.0 0.00 0.25 0.20 68 1007.6
20260506192605 54 196 2.0 8.0 0.00 0.25 0.20 68 1007.6
20260506191605 54 190 5.0 10.0 0.00 0.25 0.20 67 1007.7
20260506190605 54 187 6.0 10.0 0.00 0.25 0.20 68 1007.6
20260506185605 53 243 5.0 8.0 0.00 0.25 0.20 70 1007.6
20260506184605 53 192 3.0 7.0 0.00 0.25 0.20 75 1007.6
20260506183605 53 22 2.0 7.0 0.00 0.25 0.20 68 1007.6
20260506182604 54 164 4.0 8.0 0.00 0.25 0.20 76 1007.8
20260506181605 52 202 2.0 8.0 0.00 0.25 0.20 77 1007.8
20260506180605 51 225 1.0 7.0 0.00 0.25 0.20 74 1007.8
20260506175605 50 48 3.0 5.0 0.00 0.25 0.20 77 1007.8
20260506174606 50 286 1.0 6.0 0.00 0.25 0.20 77 1007.9
20260506173605 50 225 4.0 6.0 0.00 0.25 0.20 81 1007.9
20260506172604 49 250 1.0 3.0 0.00 0.25 0.20 75 1008.1
20260506171604 49 332 1.0 3.0 0.00 0.25 0.20 80 1008.1
20260506170605 48 241 0.0 2.0 0.00 0.25 0.20 79 1008.2
20260506165605 48 240 1.0 3.0 0.00 0.25 0.20 80 1008.1
20260506164605 48 240 2.0 3.0 0.00 0.25 0.20 80 1008.1
20260506163605 48 133 1.0 3.0 0.00 0.25 0.20 81 1008.1
20260506162604 48 103 1.0 5.0 0.00 0.25 0.20 82 1007.8
20260506155605 47 96 1.0 5.0 0.00 0.25 0.20 84 1007.9
20260506154605 46 110 2.0 6.0 0.00 0.25 0.20 85 1007.9
20260506152605 47 86 5.0 8.0 0.00 0.25 0.20 83 1007.9
20260506150605 47 79 3.0 5.0 0.00 0.25 0.20 85 1008.0
20260506145605 46 42 1.0 2.0 0.00 0.25 0.20 84 1008.3
20260506144604 46 65 2.0 3.0 0.00 0.25 0.20 89 1008.1
20260506143604 45 21 1.0 3.0 0.00 0.25 0.20 87 1008.3
20260506142604 45 358 2.0 3.0 0.00 0.25 0.20 88 1008.3
20260506141605 44 359 0.0 3.0 0.00 0.25 0.20 90 1008.2
20260506140604 44 62 1.0 3.0 0.00 0.25 0.20 89 1008.4
20260506134605 44 35 3.0 5.0 0.01 0.25 0.20 92 1007.8
20260506133605 44 73 2.0 3.0 0.01 0.25 0.20 91 1007.8
20260506132604 44 73 2.0 3.0 0.01 0.25 0.20 92 1008.1
20260506131604 44 74 1.0 2.0 0.01 0.25 0.20 91 1008.1
20260506130605 44 74 2.0 3.0 0.01 0.25 0.20 91 1008.1
20260506125605 44 42 2.0 3.0 0.01 0.25 0.20 94 1007.8
20260506124605 44 325 1.0 3.0 0.00 0.24 0.19 94 1007.8
20260506123605 44 320 0.0 2.0 0.00 0.24 0.19 95 1007.8
20260506122604 43 320 2.0 3.0 0.00 0.24 0.19 95 1008.0
20260506121604 43 319 1.0 2.0 0.00 0.24 0.19 94 1008.0
20260506120605 43 319 0.0 1.0 0.00 0.24 0.19 95 1008.1
20260506114605 43 319 0.0 1.0 0.00 0.24 0.19 95 1007.9
20260506113605 43 319 0.0 2.0 0.00 0.24 0.19 96 1008.0
20260506110605 42 319 1.0 3.0 0.01 0.24 0.19 96 1007.8
20260506105604 42 317 2.0 3.0 0.01 0.24 0.19 96 1007.6
20260506104604 42 242 0.0 1.0 0.02 0.24 0.19 95 1007.5
20260506103604 42 242 2.0 3.0 0.02 0.24 0.19 95 1007.3
20260506101605 43 122 2.0 5.0 0.04 0.24 0.19 96 1007.3
20260506100604 43 135 2.0 5.0 0.05 0.24 0.18 96 1007.6
20260506095604 43 191 0.0 0.0 0.06 0.24 0.18 96 1007.7
20260506094605 43 191 0.0 0.0 0.06 0.23 0.17 96 1007.9
20260506093605 44 191 0.0 0.0 0.06 0.22 0.17 96 1008.0
20260506092604 44 191 0.0 0.0 0.06 0.21 0.16 96 1007.9
20260506091605 44 191 0.0 0.0 0.06 0.20 0.15 96 1008.2
20260506085604 44 191 0.0 0.0 0.07 0.18 0.13 96 1007.8
20260506084604 44 191 0.0 1.0 0.08 0.17 0.12 96 1007.8
20260506083605 44 191 1.0 2.0 0.08 0.17 0.11 96 1007.7
20260506082604 44 191 2.0 3.0 0.09 0.16 0.10 96 1007.7
20260506081605 44 226 2.0 3.0 0.09 0.15 0.09 95 1007.9
20260506080604 44 246 0.0 2.0 0.07 0.13 0.07 95 1008.1
20260506072604 45 246 0.0 0.0 0.02 0.07 0.02 94 1007.8
20260506071604 45 246 0.0 3.0 0.01 0.06 0.01 94 1007.9
20260506070605 45 228 3.0 3.0 0.00 0.06 0.00 93 1008.3
20260506061605 45 204 2.0 7.0 0.00 0.06 0.00 92 1008.2